Date String (YYYY-MM-DD hh:mm:ss) UTC,Instrument flags,absolute air pressure of the measurement (hPa),sample flow rate (lpm),inlet stack bypass flow (lpm),air temperature of the measurement (°C),ambient temperature measured by the external sensor (°C),aerosol sample conditioner tube jacket temperature (°C),OPC LED temperature (°C),internal box temperature (°C),relative humidity of the measurement (%),span deviation,mass concentration of particles derived from Lorenz-Mie calculation of OPC scattering (μg/m³),mass concentration of particles derived from Lorenz-Mie calculation of OPC scattering (μg/m³),mass concentration of particles derived from Lorenz-Mie calculation of OPC scattering (μg/m³)
DateTimeUTC,F1_M11,P_M11,Q1_M11,Q2_M11,T1_M11,T2_M11,T3_M11,T4_M11,T5_M11,U1_M11,ZSPAN_M11,X0_M11,X2_M11,X1_M11
2023-11-29 13:00:00,SystemResetWarning,0826.8,5.00,000.00,018.7,017.6,000.0,027.2,020.0,9.2,0000.0,0003.96,0003.10,0002.70
2023-11-29 13:01:00,SystemResetWarning,0826.8,5.00,000.00,018.7,017.6,000.0,027.2,020.0,9.2,0000.0,0003.99,0003.12,0002.74
2023-11-29 13:02:00,SystemResetWarning,0826.8,5.00,000.00,018.7,017.5,000.0,027.2,020.0,9.0,0000.0,0003.96,0003.13,0002.78
2023-11-29 13:03:00,SystemResetWarning,0826.8,5.00,000.00,018.7,017.5,000.0,027.2,020.0,9.0,0000.0,0004.01,0003.16,0002.84
2023-11-29 13:04:00,SystemResetWarning,0826.8,5.00,000.00,018.7,017.5,000.0,027.2,020.0,8.9,0000.0,0004.19,0003.21,0002.91
2023-11-29 13:05:00,SystemResetWarning,0826.9,5.00,000.00,018.7,017.5,000.0,027.2,020.0,9.0,0000.0,0004.43,0003.28,0003.00
2023-11-29 13:06:00,SystemResetWarning,0826.9,5.00,000.00,018.7,017.5,000.0,027.2,020.0,9.1,0000.0,0004.60,0003.34,0003.08
2023-11-29 13:07:00,SystemResetWarning,0826.8,5.00,000.00,018.6,017.5,000.0,027.2,020.0,9.1,0000.0,0004.59,0003.35,0003.13
2023-11-29 13:08:00,SystemResetWarning,0826.8,5.00,000.00,018.6,017.5,000.0,027.2,020.0,9.0,0000.0,0004.54,0003.35,0003.15
2023-11-29 13:09:00,SystemResetWarning,0826.9,5.00,000.00,018.6,017.5,000.0,027.2,020.0,9.0,0000.0,0004.64,0003.39,0003.17
2023-11-29 13:10:00,SystemResetWarning,0826.9,5.00,000.00,018.7,017.4,000.0,027.2,020.0,9.1,0000.0,0004.74,0003.41,0003.19
2023-11-29 13:11:00,SystemResetWarning,0826.9,5.00,000.00,018.7,017.4,000.0,027.2,020.0,9.0,0000.0,0004.67,0003.41,0003.20
2023-11-29 13:12:00,SystemResetWarning,0826.8,5.00,000.00,018.7,017.5,000.0,027.2,020.0,9.0,0000.0,0004.70,0003.44,0003.23
2023-11-29 13:13:00,SystemResetWarning,0826.9,5.00,000.00,018.7,017.5,000.0,027.1,020.0,9.0,0000.0,0004.96,0003.49,0003.25
2023-11-29 13:14:00,SystemResetWarning,0826.9,5.00,000.00,018.6,017.5,000.0,027.1,020.0,9.1,0000.0,0005.12,0003.51,0003.26
2023-11-29 13:15:00,SystemResetWarning,0826.9,5.00,000.00,018.6,017.4,000.0,027.1,020.0,9.3,0000.0,0005.08,0003.52,0003.27
2023-11-29 13:16:00,SystemResetWarning,0826.9,5.00,000.00,018.6,017.4,000.0,027.1,020.0,9.4,0000.0,0005.09,0003.53,0003.26
2023-11-29 13:17:00,SystemResetWarning,0826.9,5.00,000.00,018.7,017.5,000.0,027.1,020.1,9.3,0000.0,0004.86,0003.48,0003.25
2023-11-29 13:18:00,SystemResetWarning,0826.9,5.01,000.00,018.7,018.0,000.0,027.1,020.5,9.3,0000.0,0004.80,0003.46,0003.23
2023-11-29 13:19:00,SystemResetWarning,0826.9,4.99,000.00,018.9,018.8,000.0,027.1,020.8,9.2,0000.0,0005.58,0003.47,0003.24
2023-11-29 13:20:00,SystemResetWarning,0826.8,4.99,000.00,018.9,018.9,000.0,027.1,020.6,8.9,0000.0,0006.72,0003.50,0003.26
2023-11-29 13:21:00,SystemResetWarning,0826.8,5.00,000.00,018.9,018.8,000.0,027.1,020.4,9.0,0000.0,0006.93,0003.54,0003.30
2023-11-29 13:22:00,SystemResetWarning,0826.8,5.00,000.00,018.9,018.6,000.0,027.1,020.2,8.4,0000.0,0007.54,0003.58,0003.32
2023-11-29 13:23:00,SystemResetWarning,0826.8,5.00,000.00,018.9,018.5,000.0,027.1,020.0,8.0,0000.0,0008.04,0003.62,0003.33
2023-11-29 13:24:00,SystemResetWarning,0826.8,5.01,000.00,018.8,018.4,000.0,027.1,020.0,7.9,0000.0,0008.01,0003.63,0003.35
2023-11-29 13:25:00,SystemResetWarning,0826.8,5.00,000.00,018.8,018.2,000.0,027.2,020.0,7.9,0000.0,0007.95,0003.64,0003.37
2023-11-29 13:26:00,SystemResetWarning,0826.8,5.00,000.00,018.8,018.1,000.0,027.2,020.0,7.9,0000.0,0007.94,0003.63,0003.38
2023-11-29 13:27:00,SystemResetWarning,0826.8,5.00,000.00,018.8,018.0,000.0,027.2,020.0,7.9,0000.0,0008.08,0003.61,0003.38
2023-11-29 13:28:00,SystemResetWarning,0826.9,5.00,000.00,018.8,017.9,000.0,027.2,020.0,7.9,0000.0,0008.09,0003.58,0003.34
2023-11-29 13:29:00,SystemResetWarning,0826.8,5.00,000.00,018.7,017.9,000.0,027.2,020.0,7.9,0000.0,0008.02,0003.51,0003.27
2023-11-29 13:30:00,SystemResetWarning,0826.8,5.00,000.00,018.7,017.8,000.0,027.2,020.0,7.9,0000.0,0007.40,0003.44,0003.19
2023-11-29 13:31:00,SystemResetWarning,0826.8,5.00,000.00,018.7,017.8,000.0,027.2,020.0,7.8,0000.0,0006.42,0003.34,0003.14
2023-11-29 13:32:00,SystemResetWarning,0826.8,4.99,000.00,018.7,017.7,000.0,027.2,020.0,7.8,0000.0,0006.05,0003.25,0003.03
2023-11-29 13:33:00,SystemResetWarning,0826.8,5.00,000.00,018.7,017.7,000.0,027.2,020.0,7.8,0000.0,0005.09,0003.17,0002.92
2023-11-29 13:34:00,SystemResetWarning,0826.7,4.99,000.00,018.7,017.7,000.0,027.2,020.0,7.7,0000.0,0004.18,0003.08,0002.82
2023-11-29 13:35:00,SystemResetWarning,0826.7,4.99,000.00,018.7,017.7,000.0,027.2,020.0,7.7,0000.0,0003.97,0002.92,0002.67
2023-11-29 13:36:00,SystemResetWarning,0826.7,5.00,000.00,018.7,017.7,000.0,027.2,020.0,7.7,0000.0,0003.83,0002.80,0002.54
2023-11-29 13:37:00,SystemResetWarning,0826.6,5.00,000.00,018.7,017.6,000.0,027.2,020.0,7.7,0000.0,0003.72,0002.70,0002.44
2023-11-29 13:38:00,SystemResetWarning,0826.7,5.00,000.00,018.7,017.6,000.0,027.2,020.0,7.7,0000.0,0003.25,0002.57,0002.34
2023-11-29 13:39:00,SystemResetWarning,0826.6,5.00,000.00,018.7,017.6,000.0,027.2,020.0,7.7,0000.0,0003.10,0002.53,0002.31
2023-11-29 13:40:00,SystemResetWarning,0826.6,5.00,000.00,018.7,017.6,000.0,027.2,020.0,7.7,0000.0,0003.12,0002.57,0002.34
2023-11-29 13:41:00,SystemResetWarning,0826.7,5.00,000.00,018.7,017.6,000.0,027.2,020.0,7.7,0000.0,0003.10,0002.58,0002.36
2023-11-29 13:42:00,SystemResetWarning,0826.7,5.00,000.00,018.7,017.6,000.0,027.2,020.0,7.6,0000.0,0003.82,0002.57,0002.34
2023-11-29 13:43:00,SystemResetWarning,0826.7,5.01,000.00,018.7,017.6,000.0,027.2,020.0,7.6,0000.0,0004.85,0002.54,0002.31
2023-11-29 13:44:00,SystemResetWarning,0826.7,5.01,000.00,018.7,017.5,000.0,027.2,020.0,7.6,0000.0,0004.93,0002.55,0002.28
2023-11-29 13:45:00,SystemResetWarning,0826.7,5.00,000.00,018.7,017.5,000.0,027.2,020.0,7.6,0000.0,0004.88,0002.51,0002.24
2023-11-29 13:46:00,SystemResetWarning,0826.6,5.00,000.00,018.7,017.5,000.0,027.2,020.0,7.6,0000.0,0004.79,0002.47,0002.23
2023-11-29 13:47:00,SystemResetWarning,0826.6,5.00,000.00,018.7,017.5,000.0,027.2,020.0,7.6,0000.0,0004.85,0002.47,0002.21
2023-11-29 13:48:00,SystemResetWarning,0826.6,5.00,000.00,018.7,017.5,000.0,027.2,020.0,7.4,0000.0,0004.89,0002.46,0002.20
2023-11-29 13:49:00,SystemResetWarning,0826.6,4.99,000.00,018.7,017.5,000.0,027.2,020.0,7.4,0000.0,0004.90,0002.45,0002.19
2023-11-29 13:50:00,SystemResetWarning,0826.7,5.00,000.00,018.7,017.5,000.0,027.2,020.0,7.3,0000.0,0004.90,0002.43,0002.17
2023-11-29 13:51:00,SystemResetWarning,0826.6,5.00,000.00,018.7,017.5,000.0,027.2,020.0,7.4,0000.0,0004.88,0002.40,0002.15
2023-11-29 13:52:00,SystemResetWarning,0826.6,5.00,000.00,018.7,017.5,000.0,027.2,020.0,7.4,0000.0,0004.85,0002.40,0002.14
2023-11-29 13:53:00,SystemResetWarning,0826.6,5.01,000.00,018.7,017.5,000.0,027.2,020.0,7.3,0000.0,0004.24,0002.37,0002.11
2023-11-29 13:54:00,SystemResetWarning,0826.6,5.00,000.00,018.7,017.5,000.0,027.2,020.0,7.2,0000.0,0003.02,0002.33,0002.06
2023-11-29 13:55:00,SystemResetWarning,0826.6,5.00,000.00,018.7,017.5,000.0,027.2,020.0,7.2,0000.0,0002.85,0002.24,0002.00
2023-11-29 13:56:00,SystemResetWarning,0826.6,5.00,000.00,018.7,017.5,000.0,027.2,020.0,7.1,0000.0,0002.90,0002.23,0001.96
2023-11-29 13:57:00,SystemResetWarning,0826.6,4.99,000.00,018.7,017.5,000.0,027.2,020.0,7.0,0000.0,0002.89,0002.20,0001.92
2023-11-29 13:58:00,SystemResetWarning,0826.6,4.99,000.00,018.7,017.5,000.0,027.2,020.0,7.1,0000.0,0002.80,0002.16,0001.88
2023-11-29 13:59:00,SystemResetWarning,0826.6,5.00,000.00,018.7,017.5,000.0,027.2,020.0,7.5,0000.0,0002.67,0002.09,0001.83
